星链-5414 (STARLINK-5414 )

导读

STARLINK-5414是美国SpaceX公司星链(Starlink)星座的一颗互联网卫星,于2022年12月17日发射升空,属于星链Group 4批次组网卫星。该卫星重约297千克,运行在约548公里高度的近地轨道,旨在为全球尤其是偏远地区提供低延迟、高速的卫星互联网接入服务,是SpaceX打造大规模卫星互联网星座的组成部分,截至2026年已在轨运行超三年。

Basic Information
目录编号:
54809
目录名称:
STARLINK-5414
国际标识:
2022-175BD
轨道中心:
EARTH
卫星名称:
星链-5414
卫星全名:
星链-5414 (STARLINK-5414 )
卫星状态:
在轨 (已飞行1358 天)
发射日期:
2022-12-17 UTC
国别 :
美国 (US)
星等 :
--
Orbit Information
数据来源 国际轨道数据
星历时间: 2026-09-05T10:54:49+0800
10小时前
查看轨道信息
半长轴: 6840.845km
偏心率: 0.0001121
轨道倾角: 53.159°
近地点辐角 98.453°
升交点赤经 289.301°
平近点角 261.660°
近地点: 461.941km
远地点: 463.475km
周期: 93.848分钟
每日圈数: 15.343987
Detailed Information
固有亮度:
5
最大亮度:
2.5
卫星平台:
Starlink v1.5
覆盖范围:
全球
运营商:
太空探索技术公司
运营商所在国:
美国
制造商(研发单位):
太空探索技术公司
制造商所在国:
美国
使用方式:
暂无
Satellite Introduction
星链(Starlink)计划是由太空探索技术公司(SpaceX)提出的一个巨型低轨卫星互联网星座项目,计划在2019年至2024年间在太空搭建由约1.2万颗卫星组成的“星链”网络,其中1584颗将部署在地球上空550千米处的近地轨道,并从2020年开始工作。该卫星仍在工作。
2D Orbit Map
3D Orbit Map
Orbit Altitude Analysis Chart
Orbit Inclination Analysis Chart
Orbit Comprehensive Analysis Chart
View Comprehensive Chart
Conjunction Data List
Event ID Objects TCA Miss Dist (km) Collision Risk Probability Collision Risk Index (CRI) Action
CDM_260908-025405-480906-606321
2026-09-08T
02:54:07+0000
0.934 km
远距离
2.961264E-5 中风险 0.64
CDM_260905-183105-234705-480922
2026-09-05T
18:31:07+0000
2.340 km
极远距离
1.773233E-6 低风险 0.4
CDM_260908-012005-480906-606321
2026-09-08T
01:20:19+0000
2.343 km
极远距离
1.751978E-6 低风险 0.4
CDM_260907-021005-480906-689921
2026-09-07T
02:10:21+0000
2.302 km
极远距离
7.218531E-7 极低风险 0.32
CDM_260907-025705-480906-689921
2026-09-07T
02:57:15+0000
2.682 km
极远距离
5.694271E-7 极低风险 0.3
CDM_260907-003605-480906-689921
2026-09-07T
00:36:34+0000
2.698 km
极远距离
5.656599E-7 极低风险 0.3